STARLINK-38140, 100182

Orbit data source: Space-Track

STARLINK-38140, 100182 is a payload satellite owned by SpaceX/Seattle (US) in SSO that was launched on Sat, 01 Aug 2026 UTC launched from the Air Force Western Test Range (AFWTR). Payload-class satellites include a variety of spacecraft equipped with specific instruments for various scientific and technological missions. These include communications satellites like Starlink; space stations such as the ISS; scientific satellites like the Hubble; Earth observation satellites from companies like Planet Labs, Umbra, and HawkEye 360; GPS; miniature CubeSats for education and research; and military/defense satellites.

Not visible in the next 10 days
Identifier
100182, 2026-175D
Orbit
SSO
Country
Flag of USUS
Related business
Manufacturer
SpaceX/Seattle
Mission
Operational spacecraft
Bus & Motor
STARLINK V2MO, Unknown motor
Mass
575 kg wet, ~530 kg dry
Launch date (UTC)
2026-08-01 (2 months ago)
Launch vehicle
Unknown
Launch site
Air Force Western Test Range (AFWTR)
Object type
Payload
Rocket body
Debris
Shape & HBR
BOX + PAN, 17.7 m
Radar Cross Section
Large (>1 m²)

Expand to show TLE details & history
Last TLE update: 10 hours ago

TLE from 10 hours ago
0 STARLINK-38140
1 A0182U 26175D   26263.83248709  .00263290  00000-0  17078-2 0  9999
2 A0182  97.2839 106.2084 0001793  95.4588 264.6882 15.75249663  9228
Epoch: 2026-09-20T19:58Z
TLE epoch observation values (Epoch: 2026-09-20T19:58:46.884Z)
Latitude
-0.00001°
Longitude
166.79204°
Altitude
347.201 km
Speed
7.7 km/s
True Right ascension
07h 04m 50s
True Declination
0° 00' 00"
Sunlit
Object was in daylight at epoch
Visualization orbit readout
Latitude
Unknown
Longitude
Unknown
Altitude
Unknown
Speed
Unknown
Apparent Right ascension
Unknown
Apparent Declination
Unknown
Sunlit
N/A
Visualization observer readout
Local Sidereal Time
23:14:02
Azimuth
Unknown
Elevation
Unknown
Doppler factor
Unknown
Orbital elements
Apogee altitude
342.013 km
Perigee altitude
339.603 km
Semi-major axis
6,718.945 km
Eccentricity
0.00018
Inclination
97.2839°
RAAN
106.2084°
Arg. of periapsis
95.4588°
True anomaly
264.66774°
Mean anomaly
264.6882°
Eccentric anomaly
264.67797°
Mean motion
3.94086 °/min
Orbital period
91.35 mins
BSTAR
0.0017078
Loading maneuver chart data...
Computing Atmospheric mass density...
Loading historical data...
Loading historical data...
Loading historical data...
Loading historical data...
Loading historical data...
Loading historical data...
Loading historical data...

Documentation

Showing up to 5 results
|